星链-5857 (STARLINK-5857 )

导读

STARLINK-5857是美国SpaceX公司“星链”星座中的一颗低轨互联网卫星,于2023年3月17日发射升空。作为星链网络的组成部分,它运行在近地轨道,旨在为全球提供高速宽带互联网服务,尤其覆盖偏远、网络基础设施薄弱区域。星链星座通过大规模卫星组网,实现全球无死角互联网接入,STARLINK-5857的入轨进一步扩充了星链星座的服务覆盖范围与网络容量,推动星链全球互联目标的落地,也代表了美国在低轨卫星互联网领域的持续推进与布局。

Basic Information
目录编号:
55946
目录名称:
STARLINK-5857
国际标识:
2023-037AJ
轨道中心:
EARTH
卫星名称:
星链-5857
卫星全名:
星链-5857 (STARLINK-5857 )
卫星状态:
在轨 (已飞行1186 天)
发射日期:
2023-03-17 UTC
国别 :
美国 (US)
星等 :
--
Orbit Information
数据来源 国际轨道数据 AOE轨道数据
星历时间 2026-06-15T02:26:15+0800
7小时前
查看轨道信息
2026-06-15T00:00:00+0800
10小时前
查看轨道信息
半长轴 6950.196km 6950.19km
偏心率 0.0002859 0.0000012
轨道倾角 70.000° 70.000°
近地点辐角 268.306° 329.686°
升交点赤经 39.609° 39.864°
平近点角 91.777° 202.693°
近地点 570.071km 572.044km
远地点 574.047km 572.062km
周期 96.107分钟 96.107分钟
每日圈数 14.983293 14.98331
Detailed Information
固有亮度:
5
最大亮度:
2.5
卫星平台:
Starlink v1.5
覆盖范围:
全球
运营商:
太空探索技术公司
运营商所在国:
美国
制造商(研发单位):
太空探索技术公司
制造商所在国:
美国
使用方式:
暂无
Satellite Introduction
星链(Starlink)计划是由太空探索技术公司(SpaceX)提出的一个巨型低轨卫星互联网星座项目,计划在2019年至2024年间在太空搭建由约1.2万颗卫星组成的“星链”网络,其中1584颗将部署在地球上空550千米处的近地轨道,并从2020年开始工作。该卫星仍在工作。
2D Orbit Map
3D Orbit Map
Orbit Altitude Analysis Chart
Orbit Inclination Analysis Chart
Orbit Comprehensive Analysis Chart
View Comprehensive Chart